Weather in Novokulevo

Russia / Republic of Bashkortostan     55°04′59″N   56°37′08″E
temp.,
°C
wind,
m/s
gust,
m/s
humid.,
%
clouds,
%
prec.,
mm/h
press.,
hPa
HPBL,
m
22 january, fri
fri2223:00−18ssw5896100 0.6 1017336
02:00−18s51096100 0.3 1017295
05:00−17s61095100 0.6 1016310
08:00−16s61095100 0.4 1016319
11:00−15ssw5995100 0.8 1016354
14:00−13ssw5894100 0.5 1016460
17:00−12sw3595100 1.1 1017194
20:00−16nnw1297100 0.4 101922
23 january, sat
sat2323:00−19nnw119996 0.6 102220
02:00−22e0010089 0.0 102520
05:00−21se1110094 0.1 102820
08:00−22se12100100 0.0 103020
11:00−20sse2397100 0.1 103096
14:00−16s3789100 0.0 1030348
17:00−15s41088100 0.0 1029487
20:00−14s51394100 0.1 1028534
24 january, sun
sun2423:00−13s61294100 0.9 1027589
02:00−13s61294100 1.1 1026537
05:00−13s61194100 2.0 1025394
08:00−12s51094100 0.8 1025354
11:00−9s5994100 1.7 1025311
14:00−6s4895100 0.9 1024313
17:00−4sse4797100 2.1 1024230
20:00+1sw36100100 1.7 1025190
25 january, mon
mon2523:00+1wsw410100100 2.5 1026306
02:00+1sw3899100 0.1 1026243
05:00+1sw51099100 0.6 1026319
08:00−1sw5997100 0.6 1028441
11:00−2sw5996100 1.1 1029444
14:000sw5899100 0.9 1029533
17:000sw5997100 1.9 1030533
20:00−1ssw489896 0.7 1031331
26 january, tue
tue2623:00−1ssw499397 0.9 1032436
02:00−1ssw4895100 0.0 1032408
05:00−2ssw4993100 0.1 1032397
08:00−4s4895100 0.0 1032287
11:00−3s4994100 0.1 1032377
14:00−2s5993100 0.1 1031486
17:00−2ssw5992100 0.1 1031561
20:00−3s41094100 0.1 1031539